Ana Sayfa
METAR-TAF:

METAR-TAF

Havaalanları :

Monbetsu, Japonya

Enlem: 44-15N, Boylam: 143-32E, yükseklik: 6 m

Güncel hava durumu gözlemi

Rapor saat 07:00 UTC de 13 saat ve 55 dakika önce yapıldı.
Rüzgar batıdan 22 kt
Sıcaklık 8°C
Nem 61%
Basınç 996 hPa
Görüş mesafesi 10 km veya daha fazla
900 ft yükseklikte az bulutlu
4000 ft yükseklikte parçalı bulutlu
5000 ft yükseklikte parçalı çok bulutlu
hafif sağanak yağmurlar

METAR: RJEB 260700Z 26022KT 9999 -SHRA FEW009 SCT040 BKN050 08/01 Q0996

Saat: 05:55 (20:55 UTC)


TAF: eksik

4.000'den fazla havaalanı için hava durumu gözlemleri ve tahminleri (METAR ve TAF raporları).

Kullanılabilir istasyonlar harita üzerinde sarı ve kırmızı noktalarla gösterilir.

İstasyonun adını görmek için fareyi noktanın üzerinde gezdirin.

Sonrasında hava gözlem ve tahminlerini görmek için tıklayın.

Haritayı değiştirmek için: yaklaştırmak için siyah artı işaretli yeşil düğmeye ve uzaklaştırmak için de eksi işaretli düğmeye hızla tıklayın; bitişik haritalar için yeşil okları kullanın.


METAR-TAF: